Regional Weather Roundup
Issued by NWS

Home | Current Version | Previous Version | Graphics & Text | Print | Product List | Glossary On
Versions: 1 2 3 4 5 6 7 8 9 10 11 12 13 14 15 16 17 18 19 20 21 22 23 24 25 26 27 28 29 30 31 32 33 34 35 36 37 38 39 40 41 42 43 44 45 46 47 48 49 50
000
ASUS45 KBOU 211207
RWRCO

WEATHER ROUNDUP FOR COLORADO
NATIONAL WEATHER SERVICE DENVER/BOULDER CO
500 AM MST SUN DEC 21 2014

NOTE: "FAIR" INDICATES FEW OR NO CLOUDS BELOW 12000 FEET WITH NO
SIGNIFICANT WEATHER AND/OR OBSTRUCTIONS TO VISIBILITY.

COZ001>005-013-030-031-211300-
...NORTHWEST COLORADO...

CITY           SKY/WX    TMP DP  RH WIND       PRES   REMARKS
CRAIG          CLOUDY    26  23  88 CALM      29.95F
HAYDEN         CLOUDY    27  21  80 CALM      29.94F
MEEKER         CLOUDY    33  25  72 SW9       29.97F WCI  25
MOUNT WERNER   NOT AVBL
STEAMBOAT SPGS CLOUDY    24  23  96 CALM      29.94F
WALDEN         CLOUDY    30  21  69 S20G28    29.86F WCI  18
$$

COZ006>008-011-211300-
...WEST CENTRAL VALLEYS...

CITY           SKY/WX    TMP DP  RH WIND       PRES   REMARKS
GRAND JUNCTION CLOUDY    32  30  92 N3        30.05S
MONTROSE       MOCLDY    29  27  92 CALM      30.05F
EAGLE          CLOUDY    28  27  93 NE3       30.00F
RIFLE          CLOUDY    31  28  89 CALM      30.03R
DELTA          MOCLDY    33  30  88 E3        30.05F
NUCLA          MOCLDY    32  28  86 CALM      30.06F
$$

COZ017>023-064>068-211300-
...SOUTHWEST COLORADO...

CITY           SKY/WX    TMP DP  RH WIND       PRES   REMARKS
DURANGO        CLOUDY    25  25 100 CALM      30.03F FOG
CORTEZ         CLEAR     23  21  92 CALM      30.05F
PAGOSA SPRINGS CLOUDY    28  27  96 E3        30.04F
TELLURIDE      MOCLDY    27  23  85 CALM      30.06S
WOLF CREEK PAS SNOW      14  12  92 MISG      29.99F VSB 1/4
$$

COZ009-010-012-014-032>034-037-058>063-211300-
...CENTRAL COLORADO...

CITY           SKY/WX    TMP DP  RH WIND       PRES   REMARKS
ASPEN          CLOUDY    22  19  89 S5        29.96F WCI  16
BUENA VISTA    MOCLDY    33  14  45 W21G32    29.88S WCI  21
COPPER MTN     CLOUDY    19  14  79 W17       29.93F WCI   4
BERTHOUD PASS  CLOUDY    10   5  79 MISG      29.87S
COTTONWOOD PAS MOCLDY    30  14  51 W30G47    29.87F WCI  15
GUNNISON       PTCLDY    19  14  79 CALM      30.05R
KREMMLING      CLOUDY    30  23  74 W3        29.94F
LEADVILLE      CLOUDY    21  13  71 NW8       29.93F WCI  11
MONARCH PASS   CLOUDY    14  12  92 MISG      29.99F
SALIDA         MOCLDY    35  17  46 SW15G26   29.96S WCI  26
SUNLIGHT       CLOUDY   N/A N/A N/A CALM      29.96F
WILKERSON PASS MOCLDY    18  10  73 W9G18     29.86S WCI   6
$$

COZ069>075-211300-
...SAN LUIS VALLEY/SANGRE DE CRISTO MOUNTAINS...

CITY           SKY/WX    TMP DP  RH WIND       PRES   REMARKS
ALAMOSA        MOCLDY     6   2  83 S7        29.98F WCI  -6
LA VETA PASS   PTCLDY    18  16  93 SW10      29.89S WCI   6
SAGUACHE       MOCLDY    32  21  64 NW8       29.95F WCI  25
$$

COZ035-036-038>040-211300-
...NORTHERN COLORADO FRONT RANGE...

CITY           SKY/WX    TMP DP  RH WIND       PRES   REMARKS
DENVER INTL AP PTCLDY    27  20  75 S13       29.76F WCI  16
DMNS CITY PARK   N/A     30  19  65 S3G9      29.77F
AURORA         PTCLDY    30  19  63 S9        29.78F WCI  22
FRONT RANGE AP PTCLDY    30  23  74 S12       29.77F WCI  21
ERIE MUNI ARPT   N/A     23  19  85 SE3       29.76F
BOULDER MUN AP MOCLDY    30  21  69 S3        29.75F
CENTENNIAL     MOCLDY    32  19  58 S7        29.77F WCI  26
BROOMFIELD     MOCLDY    43  18  36 SW12G18   29.75F
FORT COLLINS   MOCLDY    25  18  74 N5        29.78F WCI  19
LONGMONT       MOCLDY    25  21  82 CALM      29.78F
$$

COZ041-046-047-076>085-087-088-211300-
...PIKES PEAK/PALMER DIVIDE AND SOUTHERN FOOTHILLS...

CITY           SKY/WX    TMP DP  RH WIND       PRES   REMARKS
COLO. SPRINGS  PTCLDY    31  16  54 N7        29.81F WCI  24
A. F. ACADEMY  PTCLDY    35  14  41 NE5       29.80F WCI  31
ELLICOTT       NOT AVBL
FALCON         PTCLDY    24  13  63 NW6       29.82F WCI  17
FORT CARSON    CLEAR     30  16  56 CALM      29.80F
LIMON          CLEAR     19  16  88 NW5       29.80F WCI  12
MONUMENT HILL  PTCLDY    25  16  68 S8        29.79F WCI  16
TRINIDAD       CLEAR     28  17  63 W10       29.84F WCI  19
$$

COZ042>045-048>051-090-091-211300-
...NORTHEAST COLORADO...

CITY           SKY/WX    TMP DP  RH WIND       PRES   REMARKS
GREELEY ARPT   MOCLDY    16   7  67 NW6       29.77F WCI   7
AKRON          PTCLDY    25  18  74 W12       29.77F WCI  14
BURLINGTON     CLEAR     28  23  81 W10       29.80F WCI  19
WRAY           PTCLDY    25  23  92 SW7       29.80F WCI  17
STERLING       PTCLDY    18  16  93 S7        29.77F WCI   8
HOLYOKE        PTCLDY    28  23  80 CALM      29.77F
FORT MORGAN    PTCLDY    18  15  86 W9        29.78F WCI   7
$$

COZ086-089-092>099-211300-
...SOUTHEAST COLORADO...

CITY           SKY/WX    TMP DP  RH WIND       PRES   REMARKS
PUEBLO         PTCLDY    19  14  81 N5        29.82F WCI  12
LA JUNTA       CLEAR     26  21  81 W5        29.84F WCI  20
LAMAR          CLEAR     24  21  88 W7        29.81F WCI  16
SPRINGFIELD      N/A     30  23  75 W13       29.79F WCI  20
$$


USA.gov is the U.S. government's official web portal to all federal, state and local government web resources and services.